Regional Weather Roundup
Issued by NWS

Home | Current Version | Previous Version | Graphics & Text | Print | Product List | Glossary On
Versions: 1 2 3 4 5 6 7 8 9 10 11 12 13 14 15 16 17 18 19 20 21 22 23 24 25 26 27
000
ASUS45 KCYS 161310
RWRWY

WYOMING REGIONAL WEATHER ROUNDUP
NATIONAL WEATHER SERVICE CHEYENNE WY
700 AM MDT MON OCT 16 2017

NOTE:  "FAIR" INDICATES FEW OR NO CLOUDS BELOW 12,000 FEET
WITH NO SIGNIFICANT WEATHER AND/OR OBSTRUCTIONS TO VISIBILITY.

WYZ001-161400-
YELLOWSTONE NATIONAL PARK

CITY           SKY/WX    TMP DP  RH WIND       PRES   REMARKS
LK YELLOWSTONE   N/A     19  19 100 NW3       30.44R
W YELLOWSTONE  NOT AVBL

$$
WYZ002>013-054>058-071-098>099-161400-
NORTHERN WYOMING

CITY           SKY/WX    TMP DP  RH WIND       PRES   REMARKS
JACKSON        FAIR      19  16  88 CALM      30.45R
CODY           FAIR      52  14  22 W10       30.24S
GREYBULL       FAIR      30  25  81 CALM      30.23R
WORLAND        FAIR      30  28  92 S3        30.23S
SHERIDAN       FAIR      30  25  81 SW5       30.13S WCI  25
BUFFALO        FAIR      47  16  29 W10       30.16F
GILLETTE       FAIR      37  26  64 S7        30.15F WCI  32
HULETT         FAIR      37  27  65 MISG      30.16S
NEWCASTLE      FAIR      32  27  80 CALM      30.20S

$$
WYZ014>020-022>026-101>103-161400-
CENTRAL WYOMING

CITY           SKY/WX    TMP DP  RH WIND       PRES   REMARKS
BIG PINEY      FAIR      16  12  84 CALM      30.43S
PINEDALE       FAIR      19  18  93 W6        30.43S WCI  11
DUBOIS         FAIR      36  10  35 NW22      30.32S WCI  24
LANDER         FAIR      38  27  64 CALM      30.27S
RIVERTON       FAIR      41  27  57 SW6       30.27F
CASPER         FAIR      46  15  28 SW15      30.25S
DOUGLAS        FAIR      28  22  78 CALM      30.23F

$$
WYZ021-027>030-104>119-161400-
SOUTHERN WYOMING

CITY           SKY/WX    TMP DP  RH WIND       PRES   REMARKS
EVANSTON       FAIR      36  12  37 S8        30.42F WCI  30
KEMMERER       FAIR      30  12  47 NW10      30.43S WCI  21
FORT BRIDGER   FAIR      37   2  22 W10       30.44F WCI  30
ROCK SPRINGS   FAIR      32  12  43 CALM      30.42R
DIXON          FAIR      27  20  74 CALM      30.48R
RAWLINS        FAIR      41  13  31 SE5       30.39S
SARATOGA       FAIR      30  18  59 S6        30.41S WCI  24
LARAMIE        FAIR      42  11  28 W20       30.36S
CHEYENNE       FAIR      51  13  21 S12       30.31S
TORRINGTON     FAIR      28  23  81 CALM      30.23F
PINE BLUFFS    FAIR      36  23  60 MISG      30.29F

$$




USA.gov is the U.S. government's official web portal to all federal, state and local government web resources and services.